When you browse on this site, cookies collect data to enhance your experience and personalize the content and advertising you see.
Visit our Privacy Policy to learn more. By continuing to use the site, you agree to this use of cookies and data.

Hourly Weather Otrozhnyy

Today, 6 July, Monday

Time Temperature Precipitation Wind Pressure Humidity
00:00 +24°C° 0 mm 1 mps 742 mmHg 77%
01:00 +21°C° 0 mm 0 mps 742 mmHg 78%
02:00 +23°C° 0 mm 1 mps 742 mmHg 78%
03:00 +22°C° 0 mm 1 mps 742 mmHg 79%
04:00 +22°C° 0 mm 1 mps 742 mmHg 82%
05:00 +23°C° 0.1 mm 2 mps 742 mmHg 79%
06:00 +24°C° 0.1 mm 2 mps 742 mmHg 77%
07:00 +25°C° 0.1 mm 2 mps 742 mmHg 74%
08:00 +27°C° 0 mm 2 mps 742 mmHg 68%
09:00 +28°C° 0 mm 2 mps 742 mmHg 62%
10:00 +30°C° 0 mm 2 mps 742 mmHg 55%
11:00 +31°C° 0 mm 3 mps 742 mmHg 51%
12:00 +33°C° 0 mm 4 mps 742 mmHg 47%
13:00 +34°C° 0 mm 4 mps 742 mmHg 44%
14:00 +34°C° 0 mm 4 mps 742 mmHg 44%
15:00 +34°C° 0 mm 5 mps 742 mmHg 44%
16:00 +34°C° 0 mm 4 mps 741 mmHg 45%
17:00 +33°C° 0.1 mm 4 mps 741 mmHg 51%
18:00 +32°C° 0.1 mm 4 mps 741 mmHg 56%
19:00 +30°C° 0.1 mm 3 mps 741 mmHg 62%
20:00 +28°C° 0.3 mm 3 mps 742 mmHg 67%
21:00 +26°C° 0.3 mm 3 mps 742 mmHg 72%
22:00 +24°C° 0.3 mm 2 mps 742 mmHg 76%
23:00 +24°C° 0 mm 2 mps 742 mmHg 77%

Tomorrow, 7 July, Tuesday

Time Temperature Precipitation Wind Pressure Humidity
00:00 +23°C° 0 mm 2 mps 742 mmHg 78%
01:00 +22°C° 0 mm 1 mps 742 mmHg 79%
02:00 +22°C° 0.1 mm 1 mps 743 mmHg 80%
03:00 +22°C° 0.1 mm 1 mps 743 mmHg 81%
04:00 +21°C° 0.1 mm 1 mps 743 mmHg 81%
05:00 +23°C° 0 mm 1 mps 743 mmHg 77%
06:00 +24°C° 0 mm 1 mps 743 mmHg 73%
07:00 +25°C° 0 mm 1 mps 743 mmHg 69%
08:00 +27°C° 0 mm 1 mps 744 mmHg 64%
09:00 +28°C° 0 mm 1 mps 744 mmHg 58%
10:00 +30°C° 0 mm 2 mps 744 mmHg 53%
11:00 +31°C° 0 mm 2 mps 744 mmHg 49%
12:00 +32°C° 0 mm 2 mps 744 mmHg 44%
13:00 +34°C° 0 mm 2 mps 743 mmHg 40%
14:00 +34°C° 0 mm 2 mps 744 mmHg 40%
15:00 +34°C° 0 mm 3 mps 744 mmHg 40%
16:00 +34°C° 0 mm 3 mps 744 mmHg 39%
17:00 +33°C° 0 mm 3 mps 744 mmHg 45%
18:00 +31°C° 0 mm 3 mps 743 mmHg 50%
19:00 +30°C° 0 mm 3 mps 743 mmHg 56%
20:00 +29°C° 0 mm 3 mps 743 mmHg 61%
21:00 +27°C° 0 mm 3 mps 744 mmHg 67%
22:00 +25°C° 0 mm 3 mps 744 mmHg 72%
23:00 +24°C° 0 mm 3 mps 744 mmHg 75%

Day after tomorrow, 8 July, Wednesday

Time Temperature Precipitation Wind Pressure Humidity
00:00 +24°C° 0 mm 3 mps 744 mmHg 78%
01:00 +23°C° 0 mm 2 mps 744 mmHg 81%
02:00 +21°C° 0 mm 2 mps 744 mmHg 84%
03:00 +21°C° 0 mm 2 mps 744 mmHg 86%
04:00 +20°C° 0 mm 2 mps 744 mmHg 88%
05:00 +21°C° 0 mm 2 mps 745 mmHg 84%
06:00 +24°C° 0 mm 2 mps 745 mmHg 80%
07:00 +25°C° 0 mm 3 mps 745 mmHg 76%
08:00 +26°C° 0 mm 3 mps 745 mmHg 69%
09:00 +28°C° 0 mm 3 mps 745 mmHg 62%
10:00 +29°C° 0 mm 3 mps 745 mmHg 55%
11:00 +30°C° 0 mm 3 mps 745 mmHg 52%
12:00 +31°C° 0 mm 3 mps 745 mmHg 49%
13:00 +33°C° 0 mm 4 mps 745 mmHg 46%
14:00 +33°C° 0 mm 4 mps 745 mmHg 46%
15:00 +33°C° 0 mm 4 mps 745 mmHg 47%
16:00 +33°C° 0 mm 5 mps 745 mmHg 48%
17:00 +32°C° 0 mm 4 mps 745 mmHg 51%
18:00 +31°C° 0 mm 3 mps 745 mmHg 54%
19:00 +30°C° 0 mm 3 mps 745 mmHg 58%
20:00 +28°C° 0 mm 3 mps 745 mmHg 62%
21:00 +27°C° 0 mm 3 mps 745 mmHg 67%
22:00 +25°C° 0 mm 3 mps 745 mmHg 71%
23:00 +23°C° 0 mm 4 mps 745 mmHg 72%

9 July, Thursday

Time Temperature Precipitation Wind Pressure Humidity
00:00 +23°C° 0 mm 4 mps 745 mmHg 73%
01:00 +22°C° 0 mm 4 mps 745 mmHg 73%
02:00 +22°C° 0 mm 4 mps 745 mmHg 74%
03:00 +21°C° 0 mm 4 mps 745 mmHg 75%
04:00 +21°C° 0 mm 4 mps 745 mmHg 75%
05:00 +22°C° 0 mm 4 mps 745 mmHg 72%
06:00 +23°C° 0 mm 5 mps 745 mmHg 69%
07:00 +25°C° 0 mm 5 mps 745 mmHg 66%
08:00 +26°C° 0 mm 5 mps 745 mmHg 61%
09:00 +28°C° 0 mm 5 mps 745 mmHg 56%
10:00 +29°C° 0 mm 5 mps 745 mmHg 51%
11:00 +30°C° 0 mm 5 mps 745 mmHg 49%
12:00 +32°C° 0 mm 5 mps 745 mmHg 46%
13:00 +33°C° 0 mm 5 mps 745 mmHg 44%
14:00 +33°C° 0 mm 5 mps 745 mmHg 44%
15:00 +33°C° 0 mm 5 mps 745 mmHg 44%
16:00 +33°C° 0 mm 5 mps 744 mmHg 44%
17:00 +32°C° 0 mm 4 mps 744 mmHg 48%
18:00 +30°C° 0 mm 4 mps 744 mmHg 52%
19:00 +29°C° 0 mm 3 mps 744 mmHg 57%
20:00 +28°C° 0 mm 3 mps 744 mmHg 61%
21:00 +26°C° 0 mm 4 mps 744 mmHg 64%
22:00 +25°C° 0 mm 4 mps 744 mmHg 68%
23:00 +23°C° 0 mm 4 mps 744 mmHg 69%

10 July, Friday

Time Temperature Precipitation Wind Pressure Humidity
00:00 +23°C° 0 mm 4 mps 744 mmHg 70%
01:00 +22°C° 0 mm 3 mps 744 mmHg 71%
02:00 +22°C° 0 mm 3 mps 744 mmHg 71%
03:00 +21°C° 0 mm 3 mps 744 mmHg 71%
04:00 +21°C° 0 mm 3 mps 744 mmHg 72%
05:00 +22°C° 0 mm 3 mps 744 mmHg 69%
06:00 +24°C° 0 mm 3 mps 744 mmHg 65%
07:00 +25°C° 0 mm 4 mps 744 mmHg 62%
08:00 +27°C° 0 mm 4 mps 744 mmHg 57%
09:00 +28°C° 0 mm 4 mps 744 mmHg 51%
10:00 +30°C° 0 mm 4 mps 744 mmHg 46%
11:00 +31°C° 0 mm 3 mps 744 mmHg 43%
12:00 +33°C° 0 mm 3 mps 744 mmHg 39%
13:00 +34°C° 0 mm 3 mps 744 mmHg 36%
14:00 +34°C° 0 mm 3 mps 744 mmHg 35%
15:00 +34°C° 0 mm 2 mps 743 mmHg 33%
16:00 +34°C° 0 mm 2 mps 743 mmHg 32%
17:00 +34°C° 0 mm 2 mps 743 mmHg 36%
18:00 +32°C° 0 mm 1 mps 743 mmHg 39%
19:00 +31°C° 0 mm 1 mps 743 mmHg 43%
20:00 +29°C° 0 mm 1 mps 743 mmHg 45%
21:00 +28°C° 0 mm 1 mps 743 mmHg 48%
22:00 +26°C° 0 mm 1 mps 743 mmHg 50%
23:00 +25°C° 0 mm 1 mps 743 mmHg 51%

11 July, Saturday

Time Temperature Precipitation Wind Pressure Humidity
00:00 +25°C° 0 mm 1 mps 743 mmHg 52%
01:00 +24°C° 0 mm 1 mps 743 mmHg 53%
02:00 +24°C° 0 mm 1 mps 743 mmHg 54%
03:00 +24°C° 0 mm 1 mps 743 mmHg 55%
04:00 +23°C° 0 mm 1 mps 743 mmHg 56%
05:00 +24°C° 0 mm 1 mps 743 mmHg 57%
06:00 +25°C° 0 mm 2 mps 743 mmHg 59%
07:00 +25°C° 0 mm 2 mps 744 mmHg 61%
08:00 +26°C° 0 mm 2 mps 744 mmHg 59%
09:00 +27°C° 0 mm 3 mps 744 mmHg 57%
10:00 +28°C° 0 mm 3 mps 744 mmHg 55%
11:00 +29°C° 0 mm 3 mps 744 mmHg 56%
12:00 +29°C° 0 mm 4 mps 744 mmHg 57%
13:00 +29°C° 0 mm 5 mps 744 mmHg 59%
14:00 +29°C° 0 mm 5 mps 744 mmHg 59%
15:00 +29°C° 0 mm 6 mps 744 mmHg 60%
16:00 +29°C° 0 mm 6 mps 744 mmHg 61%
17:00 +28°C° 0 mm 6 mps 744 mmHg 63%
18:00 +27°C° 0 mm 6 mps 744 mmHg 66%
19:00 +26°C° 0 mm 7 mps 744 mmHg 68%
20:00 +24°C° 0 mm 6 mps 745 mmHg 71%
21:00 +22°C° 0 mm 6 mps 745 mmHg 74%
22:00 +21°C° 0 mm 6 mps 745 mmHg 76%
23:00 +20°C° 0 mm 5 mps 745 mmHg 76%
Show more